Time,TemperatureF,DewpointF,PressureIn,WindDirection,WindDirectionDegrees,WindSpeedMPH,WindSpeedGustMPH,Humidity,HourlyPrecipIn,Conditions,Clouds,dailyrainin,SoftwareType,DateUTC
2013-07-12 00:02:00,74.0,73.0,29.89,WSW,255,0.0,4.0,96,0.00,,,0.00,,2013-07-12 05:02:00,
2013-07-12 00:11:00,74.0,73.0,29.88,WSW,238,0.0,3.0,96,0.00,,,0.00,,2013-07-12 05:11:00,
2013-07-12 00:22:00,73.0,72.0,29.88,West,270,1.0,3.0,96,0.00,,,0.00,,2013-07-12 05:22:00,
2013-07-12 00:32:00,73.0,72.0,29.88,WSW,246,0.0,3.0,96,0.00,,,0.00,,2013-07-12 05:32:00,
2013-07-12 00:43:00,73.0,72.0,29.88,WSW,246,0.0,3.0,96,0.00,,,0.00,,2013-07-12 05:43:00,
2013-07-12 00:53:00,73.0,72.0,29.87,WSW,242,0.0,1.0,96,0.00,,,0.00,,2013-07-12 05:53:00,
2013-07-12 01:01:00,73.0,72.0,29.87,WNW,283,0.0,1.0,96,0.00,,,0.00,,2013-07-12 06:01:00,
2013-07-12 01:11:00,73.0,72.0,29.87,WNW,283,0.0,1.0,96,0.00,,,0.00,,2013-07-12 06:11:00,
2013-07-12 01:22:00,73.0,72.0,29.87,West,276,0.0,1.0,96,0.00,,,0.00,,2013-07-12 06:22:00,
2013-07-12 01:42:00,72.0,71.0,29.86,West,274,0.0,3.0,96,0.00,,,0.00,,2013-07-12 06:42:00,
2013-07-12 01:52:00,72.0,71.0,29.87,WNW,283,0.0,4.0,96,0.00,,,0.00,,2013-07-12 06:52:00,
2013-07-12 02:02:00,72.0,71.0,29.87,WSW,256,1.0,4.0,97,0.00,,,0.00,,2013-07-12 07:02:00,
2013-07-12 02:12:00,72.0,71.0,29.87,WSW,256,1.0,4.0,97,0.00,,,0.00,,2013-07-12 07:12:00,
2013-07-12 02:22:00,72.0,71.0,29.86,WNW,287,1.0,6.0,97,0.00,,,0.00,,2013-07-12 07:22:00,
2013-07-12 02:32:00,72.0,71.0,29.85,West,280,1.0,4.0,97,0.00,,,0.00,,2013-07-12 07:32:00,
2013-07-12 02:43:00,72.0,71.0,29.85,West,280,1.0,4.0,97,0.00,,,0.00,,2013-07-12 07:43:00,
2013-07-12 02:52:00,72.0,71.0,29.85,West,262,0.0,2.0,97,0.00,,,0.00,,2013-07-12 07:52:00,
2013-07-12 03:01:00,72.0,71.0,29.84,South,181,0.0,1.0,97,0.00,,,0.00,,2013-07-12 08:01:00,
2013-07-12 03:11:00,72.0,71.0,29.84,South,181,0.0,1.0,97,0.00,,,0.00,,2013-07-12 08:11:00,
2013-07-12 03:21:00,72.0,71.0,29.84,South,181,0.0,0.0,97,0.00,,,0.00,,2013-07-12 08:21:00,
2013-07-12 03:32:00,71.0,70.0,29.84,South,181,0.0,0.0,97,0.00,,,0.00,,2013-07-12 08:32:00,
2013-07-12 03:42:00,71.0,70.0,29.84,South,181,0.0,0.0,97,0.00,,,0.00,,2013-07-12 08:42:00,
2013-07-12 03:53:00,71.0,70.0,29.84,South,181,0.0,0.0,97,0.00,,,0.00,,2013-07-12 08:53:00,
2013-07-12 04:02:00,71.0,70.0,29.85,South,181,0.0,0.0,97,0.00,,,0.00,,2013-07-12 09:02:00,
2013-07-12 04:12:00,71.0,70.0,29.85,South,181,0.0,0.0,97,0.00,,,0.00,,2013-07-12 09:12:00,
2013-07-12 04:22:00,70.0,69.0,29.85,South,181,0.0,0.0,98,0.00,,,0.00,,2013-07-12 09:22:00,
2013-07-12 04:32:00,70.0,69.0,29.85,South,181,0.0,0.0,98,0.00,,,0.00,,2013-07-12 09:32:00,
2013-07-12 04:43:00,70.0,69.0,29.85,South,182,0.0,0.0,98,0.00,,,0.00,,2013-07-12 09:43:00,
2013-07-12 04:52:00,71.0,70.0,29.85,West,260,0.0,1.0,98,0.00,,,0.00,,2013-07-12 09:52:00,
2013-07-12 05:11:00,70.0,69.0,29.85,West,260,0.0,0.0,98,0.00,,,0.00,,2013-07-12 10:11:00,
2013-07-12 05:22:00,70.0,69.0,29.85,West,276,0.0,0.0,98,0.00,,,0.00,,2013-07-12 10:22:00,
2013-07-12 05:33:00,70.0,69.0,29.85,West,276,0.0,0.0,98,0.00,,,0.00,,2013-07-12 10:33:00,
2013-07-12 05:42:00,70.0,69.0,29.85,West,276,0.0,0.0,98,0.00,,,0.00,,2013-07-12 10:42:00,
2013-07-12 05:52:00,70.0,69.0,29.86,West,276,0.0,0.0,98,0.00,,,0.00,,2013-07-12 10:52:00,
2013-07-12 06:02:00,70.0,69.0,29.86,West,276,0.0,0.0,98,0.00,,,0.00,,2013-07-12 11:02:00,
2013-07-12 06:12:00,70.0,69.0,29.86,West,276,0.0,0.0,98,0.00,,,0.00,,2013-07-12 11:12:00,
2013-07-12 06:22:00,70.0,69.0,29.86,West,276,0.0,0.0,98,0.00,,,0.00,,2013-07-12 11:22:00,
2013-07-12 06:32:00,70.0,69.0,29.86,West,276,0.0,0.0,98,0.00,,,0.00,,2013-07-12 11:32:00,
2013-07-12 06:43:00,70.0,69.0,29.86,West,276,0.0,0.0,98,0.00,,,0.00,,2013-07-12 11:43:00,
2013-07-12 06:53:00,71.0,71.0,29.86,West,276,0.0,0.0,99,0.00,,,0.00,,2013-07-12 11:53:00,
2013-07-12 07:02:00,71.0,71.0,29.86,West,276,0.0,0.0,99,0.00,,,0.00,,2013-07-12 12:02:00,
2013-07-12 07:11:00,71.0,71.0,29.87,West,281,0.0,2.0,99,0.00,,,0.00,,2013-07-12 12:11:00,
2013-07-12 07:22:00,71.0,70.0,29.87,SSW,212,0.0,2.0,98,0.00,,,0.00,,2013-07-12 12:22:00,
2013-07-12 07:32:00,72.0,72.0,29.87,West,266,0.0,1.0,99,0.00,,,0.00,,2013-07-12 12:32:00,
2013-07-12 07:43:00,72.0,72.0,29.87,West,266,0.0,1.0,99,0.00,,,0.00,,2013-07-12 12:43:00,
2013-07-12 07:53:00,72.0,71.0,29.88,WSW,244,0.0,2.0,98,0.00,,,0.00,,2013-07-12 12:53:00,
2013-07-12 08:01:00,72.0,71.0,29.88,SW,232,0.0,0.0,98,0.00,,,0.00,,2013-07-12 13:01:00,
2013-07-12 08:12:00,72.0,71.0,29.88,SW,232,0.0,0.0,98,0.00,,,0.00,,2013-07-12 13:12:00,
2013-07-12 08:22:00,73.0,72.0,29.88,West,270,1.0,2.0,98,0.00,,,0.00,,2013-07-12 13:22:00,
2013-07-12 08:43:00,73.0,72.0,29.89,NNW,341,0.0,2.0,98,0.00,,,0.00,,2013-07-12 13:43:00,
2013-07-12 08:53:00,74.0,73.0,29.89,WSW,253,0.0,3.0,97,0.00,,,0.00,,2013-07-12 13:53:00,
2013-07-12 09:02:00,74.0,73.0,29.89,WSW,253,0.0,3.0,97,0.00,,,0.00,,2013-07-12 14:02:00,
2013-07-12 09:12:00,74.0,73.0,29.89,SE,126,0.0,1.0,96,0.00,,,0.00,,2013-07-12 14:12:00,
2013-07-12 09:22:00,75.0,73.0,29.89,WSW,255,0.0,2.0,95,0.00,,,0.00,,2013-07-12 14:22:00,
2013-07-12 09:32:00,75.0,73.0,29.89,West,266,0.0,3.0,93,0.00,,,0.00,,2013-07-12 14:32:00,
2013-07-12 09:44:00,75.0,73.0,29.89,West,266,0.0,3.0,93,0.00,,,0.00,,2013-07-12 14:44:00,
2013-07-12 09:53:00,76.0,74.0,29.89,West,259,0.0,3.0,92,0.00,,,0.00,,2013-07-12 14:53:00,
2013-07-12 10:02:00,77.0,74.0,29.88,West,277,2.0,3.0,89,0.00,,,0.00,,2013-07-12 15:02:00,
2013-07-12 10:11:00,77.0,74.0,29.88,West,277,2.0,3.0,89,0.00,,,0.00,,2013-07-12 15:11:00,
2013-07-12 10:22:00,79.0,75.0,29.88,WSW,243,0.0,2.0,88,0.00,,,0.00,,2013-07-12 15:22:00,
2013-07-12 10:33:00,79.0,75.0,29.88,WSW,243,0.0,2.0,88,0.00,,,0.00,,2013-07-12 15:33:00,
2013-07-12 10:43:00,79.0,75.0,29.88,West,280,2.0,5.0,87,0.00,,,0.00,,2013-07-12 15:43:00,
2013-07-12 10:53:00,81.0,76.0,29.88,ESE,105,0.0,3.0,86,0.00,,,0.00,,2013-07-12 15:53:00,
2013-07-12 11:01:00,81.0,76.0,29.88,ESE,105,0.0,3.0,86,0.00,,,0.00,,2013-07-12 16:01:00,
2013-07-12 11:11:00,80.0,75.0,29.88,West,268,2.0,4.0,86,0.00,,,0.00,,2013-07-12 16:11:00,
2013-07-12 11:22:00,82.0,77.0,29.88,SW,219,0.0,4.0,85,0.00,,,0.00,,2013-07-12 16:22:00,
2013-07-12 11:32:00,82.0,77.0,29.88,SW,219,0.0,4.0,85,0.00,,,0.00,,2013-07-12 16:32:00,
2013-07-12 11:43:00,82.0,76.0,29.88,West,267,1.0,4.0,81,0.00,,,0.00,,2013-07-12 16:43:00,
2013-07-12 11:58:00,82.0,75.0,29.87,SE,132,2.0,4.0,79,0.00,,,0.00,,2013-07-12 16:58:00,
2013-07-12 12:06:00,82.0,75.0,29.87,SE,132,2.0,4.0,79,0.00,,,0.00,,2013-07-12 17:06:00,
2013-07-12 12:14:00,82.0,74.0,29.87,East,81,1.0,4.0,77,0.00,,,0.00,,2013-07-12 17:14:00,
2013-07-12 12:24:00,83.0,75.0,29.87,East,90,2.0,5.0,77,0.00,,,0.00,,2013-07-12 17:24:00,
2013-07-12 12:37:00,83.0,75.0,29.87,East,90,2.0,5.0,77,0.00,,,0.00,,2013-07-12 17:37:00,
2013-07-12 12:45:00,84.0,76.0,29.86,SSE,151,0.0,3.0,76,0.00,,,0.00,,2013-07-12 17:45:00,
2013-07-12 13:07:00,86.0,75.0,29.86,ENE,77,1.0,4.0,69,0.00,,,0.00,,2013-07-12 18:07:00,
2013-07-12 13:14:00,86.0,76.0,29.86,WNW,287,0.0,3.0,72,0.00,,,0.00,,2013-07-12 18:14:00,
2013-07-12 13:34:00,85.0,75.0,29.85,SSE,152,0.0,4.0,73,0.00,,,0.00,,2013-07-12 18:34:00,
2013-07-12 13:48:00,87.0,76.0,29.85,West,277,1.0,4.0,69,0.00,,,0.00,,2013-07-12 18:48:00,
2013-07-12 13:58:00,87.0,76.0,29.85,West,277,1.0,4.0,69,0.00,,,0.00,,2013-07-12 18:58:00,
2013-07-12 14:05:00,87.0,76.0,29.85,West,277,1.0,4.0,69,0.00,,,0.00,,2013-07-12 19:05:00,
2013-07-12 14:15:00,87.0,76.0,29.84,SW,218,0.0,2.0,71,0.00,,,0.00,,2013-07-12 19:15:00,
2013-07-12 14:34:00,87.0,75.0,29.84,West,259,0.0,3.0,68,0.00,,,0.00,,2013-07-12 19:34:00,
2013-07-12 14:46:00,88.0,76.0,29.83,West,281,2.0,5.0,67,0.00,,,0.00,,2013-07-12 19:46:00,
2013-07-12 14:58:00,88.0,77.0,29.83,WSW,254,0.0,3.0,69,0.00,,,0.00,,2013-07-12 19:58:00,
2013-07-12 15:03:00,88.0,77.0,29.83,WSW,254,0.0,3.0,69,0.00,,,0.00,,2013-07-12 20:03:00,
2013-07-12 15:14:00,87.0,75.0,29.83,SSW,210,1.0,3.0,68,0.00,,,0.00,,2013-07-12 20:14:00,
2013-07-12 15:24:00,88.0,76.0,29.82,WSW,254,1.0,7.0,67,0.00,,,0.00,,2013-07-12 20:24:00,
2013-07-12 15:34:00,88.0,76.0,29.82,WSW,254,1.0,7.0,67,0.00,,,0.00,,2013-07-12 20:34:00,
2013-07-12 15:45:00,88.0,77.0,29.82,West,276,0.0,6.0,71,0.00,,,0.00,,2013-07-12 20:45:00,
2013-07-12 15:55:00,89.0,75.0,29.81,NW,309,1.0,4.0,63,0.00,,,0.00,,2013-07-12 20:55:00,
2013-07-12 16:03:00,90.0,76.0,29.81,WSW,245,1.0,5.0,64,0.00,,,0.00,,2013-07-12 21:03:00,
2013-07-12 16:25:00,90.0,75.0,29.81,WSW,250,0.0,3.0,62,0.00,,,0.00,,2013-07-12 21:25:00,
2013-07-12 16:46:00,87.0,75.0,29.81,NW,319,0.0,1.0,68,0.00,,,0.00,,2013-07-12 21:46:00,
2013-07-12 16:59:00,88.0,76.0,29.81,WNW,287,0.0,2.0,67,0.00,,,0.00,,2013-07-12 21:59:00,
2013-07-12 17:17:00,89.0,76.0,29.78,WSW,257,1.0,5.0,66,0.00,,,0.00,,2013-07-12 22:17:00,
2013-07-12 17:33:00,88.0,75.0,29.77,SSW,193,3.0,7.0,66,0.00,,,0.00,,2013-07-12 22:33:00,
2013-07-12 17:45:00,86.0,77.0,29.80,WNW,299,0.0,1.0,74,0.00,,,0.00,,2013-07-12 22:45:00,
2013-07-12 17:56:00,86.0,78.0,29.82,West,262,0.0,0.0,78,0.00,,,0.00,,2013-07-12 22:56:00,
2013-07-12 18:04:00,86.0,78.0,29.82,WNW,282,0.0,0.0,78,0.00,,,0.00,,2013-07-12 23:04:00,
2013-07-12 18:44:00,83.0,75.0,29.81,SW,217,3.0,11.0,77,0.00,,,0.00,,2013-07-12 23:44:00,
2013-07-12 18:58:00,81.0,74.0,29.82,SSE,150,0.0,2.0,80,0.00,,,0.00,,2013-07-12 23:58:00,
2013-07-12 19:18:00,79.0,73.0,29.80,West,273,1.0,3.0,81,0.00,,,0.00,,2013-07-13 00:18:00,
2013-07-12 19:33:00,78.0,73.0,29.80,ENE,78,0.0,2.0,85,0.00,,,0.00,,2013-07-13 00:33:00,
2013-07-12 19:47:00,77.0,73.0,29.84,SW,231,0.0,1.0,88,0.00,,,0.00,,2013-07-13 00:47:00,
2013-07-12 19:56:00,77.0,73.0,29.84,SW,231,0.0,1.0,88,0.00,,,0.00,,2013-07-13 00:56:00,
2013-07-12 20:05:00,77.0,73.0,29.84,NNE,22,0.0,1.0,88,0.00,,,0.00,,2013-07-13 01:05:00,
2013-07-12 20:13:00,76.0,73.0,29.84,East,79,0.0,2.0,89,0.00,,,0.00,,2013-07-13 01:13:00,
2013-07-12 20:24:00,76.0,73.0,29.84,East,79,0.0,2.0,89,0.00,,,0.00,,2013-07-13 01:24:00,
2013-07-12 20:38:00,76.0,73.0,29.84,East,82,0.0,1.0,89,0.00,,,0.00,,2013-07-13 01:38:00,
2013-07-12 20:47:00,76.0,73.0,29.84,East,82,0.0,1.0,89,0.00,,,0.00,,2013-07-13 01:47:00,
2013-07-12 20:55:00,76.0,72.0,29.85,SE,131,0.0,3.0,86,0.00,,,0.00,,2013-07-13 01:55:00,
2013-07-12 21:06:00,76.0,72.0,29.85,SE,131,0.0,3.0,86,0.00,,,0.00,,2013-07-13 02:06:00,
2013-07-12 21:15:00,76.0,73.0,29.85,SW,235,0.0,3.0,89,0.00,,,0.00,,2013-07-13 02:15:00,
2013-07-12 21:25:00,75.0,69.0,29.86,SSW,204,0.0,5.0,82,0.00,,,0.00,,2013-07-13 02:25:00,
2013-07-12 21:37:00,75.0,69.0,29.86,SSW,204,0.0,5.0,82,0.00,,,0.00,,2013-07-13 02:37:00,
2013-07-12 21:46:00,75.0,69.0,29.85,West,278,0.0,3.0,82,0.00,,,0.00,,2013-07-13 02:46:00,
2013-07-12 21:54:00,74.0,70.0,29.87,NE,36,0.0,1.0,86,0.00,,,0.00,,2013-07-13 02:54:00,
2013-07-12 22:13:00,73.0,69.0,29.87,SE,133,0.0,1.0,87,0.00,,,0.00,,2013-07-13 03:13:00,
2013-07-12 22:27:00,73.0,69.0,29.87,NNE,31,0.0,1.0,88,0.00,,,0.00,,2013-07-13 03:27:00,
2013-07-12 22:45:00,73.0,69.0,29.86,SW,232,0.0,1.0,88,0.00,,,0.00,,2013-07-13 03:45:00,
2013-07-12 22:57:00,73.0,69.0,29.85,SW,224,0.0,3.0,88,0.00,,,0.00,,2013-07-13 03:57:00,
2013-07-12 23:01:00,73.0,69.0,29.85,SW,224,0.0,3.0,88,0.00,,,0.00,,2013-07-13 04:01:00,
2013-07-12 23:12:00,73.0,69.0,29.85,SW,236,0.0,1.0,88,0.00,,,0.00,,2013-07-13 04:12:00,
2013-07-12 23:32:00,73.0,70.0,29.84,SE,136,0.0,2.0,89,0.00,,,0.00,,2013-07-13 04:32:00,
2013-07-12 23:43:00,72.0,69.0,29.85,WSW,242,0.0,3.0,90,0.00,,,0.00,,2013-07-13 04:43:00,
2013-07-12 23:52:00,72.0,69.0,29.85,SW,221,0.0,1.0,90,0.00,,,0.00,,2013-07-13 04:52:00,